#timestamp,LO_Frequency,Hit,StdDev 
1563267615.8,286046996.6,N
1563267635.6,286046998.2,N
1563267655.5,286047002.5,N
1563267675.3,286046999.8,N
1563267695.1,286047000.1,N
1563267715.9,286047002.2,N
1563267735.7,286047002.0,N
1563267755.5,286047002.0,N
1563267775.4,286047003.6,N
1563267795.2,286047002.8,N
1563267815.1,286047000.4,N
1563267816.0,286047000.4,N
1563267835.8,286046999.6,N
1563267855.6,286046998.9,N
1563267875.5,286047000.7,N
1563267895.3,286047001.6,N
1563267915.2,286047002.1,N
1563267935.9,286047002.0,N
1563267955.7,286047002.1,N
1563267975.6,286046999.7,N
1563267995.4,286047002.4,N
1563268015.2,286047003.9,N
1563268035.1,286047001.3,N
1563268036.0,286047001.3,N
1563268055.8,286047003.3,N
1563268075.7,286047003.1,N
1563268095.5,286047004.4,N
1563268115.3,286047003.6,N
1563268135.2,286047005.5,N
1563268155.0,286047006.0,N
1563268155.9,286047006.0,N
1563268175.7,286047003.3,N
1563268195.6,286047003.4,N
1563268215.4,286047001.3,N
1563268235.3,286046999.9,N
1563268255.1,286047000.1,N
1563268256.0,286047000.1,N
1563268275.8,286047004.3,N
1563268295.7,286047003.6,N
1563268315.5,286047005.7,N
1563268335.4,286047003.3,N
1563268355.2,286047007.6,Y
1563268375.0,286047001.7,P
1563268375.9,286047001.7,P
1563268395.8,286047000.4,N
1563268415.6,286047000.4,N
1563268435.4,286047000.0,N
1563268455.3,286046998.6,N
1563268475.1,286046996.6,N
1563268495.9,286046997.0,N
1563268515.7,286046999.2,N
1563268535.5,286046996.9,N
1563268555.4,286046998.6,N
1563268575.2,286046998.7,N
1563268595.1,286046999.3,N
1563268596.0,286046999.3,N
1563268615.8,286046998.8,N
1563268635.6,286046998.4,N
1563268655.5,286046998.9,N
1563268675.3,286046998.6,N
1563268695.2,286047011.9,Y
1563268715.9,286046999.1,P
1563268735.7,286046998.6,P
1563268755.6,286047000.8,N
1563268775.4,286047001.1,N
1563268795.2,286047002.4,N
1563268815.1,286047000.5,N
1563268816.0,286047000.5,N
1563268835.8,286047000.6,N
1563268855.7,286047000.4,N
1563268875.5,286047000.4,N
1563268895.3,286046998.2,N
1563268915.2,286047000.2,N
1563268935.0,286046999.9,N
1563268935.9,286046999.9,N
1563268955.8,286047000.2,N
1563268975.6,286047000.4,N
1563268995.4,286047001.8,N
1563269015.3,286046998.3,N
1563269035.1,286046998.1,N
1563269055.9,286046999.3,N
1563269075.7,286046999.0,N
1563269095.5,286046999.4,N
1563269115.4,286047000.8,N
1563269135.2,286046999.7,N
1563269155.0,286047002.9,N
1563269155.9,286047002.9,N
1563269175.8,286047002.6,N
1563269195.6,286047002.7,N
1563269215.2,286047002.1,N
1563269235.0,286047002.2,N
1563269235.9,286047002.2,N
1563269255.8,286047002.3,N
1563269275.6,286047002.1,N
1563269295.4,286047003.7,N
1563269315.3,286047002.3,N
1563269335.1,286047002.5,N
1563269355.9,286047000.2,N
1563269375.7,286046998.6,N
1563269395.5,286046998.1,N
1563269415.4,286046998.2,N
1563269435.2,286046998.6,N
1563269455.0,286047002.4,N
1563269456.0,286047002.4,N
1563269475.8,286047000.5,N
1563269495.6,286047002.5,N
1563269515.5,286046999.9,N
1563269535.3,286047000.5,N
1563269555.1,286046998.7,N
1563269575.9,286047000.5,N
1563269595.7,286046998.6,N
1563269615.6,286047001.0,N
1563269635.4,286047000.4,N
1563269655.2,286047000.3,N
1563269675.1,286047000.3,N
1563269676.0,286047000.3,N
1563269695.8,286047002.3,N
1563269715.7,286047002.5,N
1563269735.5,286047002.4,N
1563269755.3,286047002.0,N
1563269775.2,286047001.8,N
1563269795.0,286047001.7,N
1563269795.9,286047001.7,N
1563269815.7,286047001.4,N
1563269835.6,286047003.5,N
1563269855.4,286047003.1,N
1563269875.3,286047005.6,Y
1563269895.1,286047005.4,P
1563269915.8,286047003.1,N
1563269935.7,286047003.4,N
1563269955.5,286047006.2,Y
1563269975.4,286047004.2,P
1563269995.2,286047003.1,P
1563270015.0,286047002.9,P
1563270015.9,286047002.9,Y
1563270035.8,286047002.6,P
1563270055.6,286047002.5,P
1563270075.5,286046999.9,N
1563270095.3,286047000.6,N
1563270115.1,286047000.7,N
1563270135.9,286047000.9,N
1563270155.7,286047000.9,N
1563270175.6,286046998.6,N
1563270195.4,286046998.6,N
1563270215.2,286047000.8,N
1563270235.1,286047000.7,N
1563270236.0,286047000.7,N
1563270255.8,286046998.3,N
1563270275.6,286046999.0,N
1563270295.5,286046999.3,N
1563270315.3,286046999.4,N
1563270335.2,286046999.1,N
1563270355.0,286046998.9,N
1563270355.9,286046998.9,N
1563270375.8,286046997.4,N
1563270395.6,286046995.0,Y
1563270415.4,286046994.9,P
1563270435.3,286046997.3,N
1563270455.1,286046999.4,N
1563270475.8,286046996.8,N
1563270495.7,286046995.0,N
1563270515.5,286046997.8,N
1563270535.4,286046995.5,N
1563270555.2,286046995.3,N
1563270575.0,286046995.4,N
1563270575.9,286046995.4,N
1563270595.8,286046995.1,N
1563270615.6,286046998.0,N
1563270635.5,286046994.9,Y
1563270655.3,286046999.0,P
1563270675.1,286046999.3,N
1563270695.9,286046998.8,N
1563270745.7,286046997.1,E
1563270755.7,286046998.3,N
1563270775.5,286046998.5,P
1563270795.3,286046998.7,P
1563270815.2,286046998.7,Y
1563270835.0,286047002.5,P
1563270835.9,286047002.5,N
1563270855.8,286046998.6,N
1563270875.6,286046998.8,N
1563270895.4,286046998.2,N
1563270915.3,286047000.9,N
1563270935.1,286046998.5,N
1563270955.9,286046999.3,N
1563270975.7,286046996.8,N
1563270995.5,286046997.8,N
1563271015.4,286046997.1,N
1563271035.2,286046997.4,N
1563271055.0,286046999.6,N
1563271055.9,286046999.6,N
1563271075.9,286046998.6,N
1563271095.7,286046998.1,N
1563271115.6,286046998.7,N
1563271135.4,286047002.8,N
1563271155.2,286047000.1,N
1563271175.1,286046998.6,N
1563271176.0,286046998.6,N
1563271195.8,286046998.7,N
